This is the latest recevied weather packets stored in our database for station/object AG1T-20. If no packets are shown the sender has not sent any weather packets the latest 10 day(s).
| Time | Temp. | Humidity | Pressure | Rain* | Wind** | Luminosity | Snow |
|---|---|---|---|---|---|---|---|
| 1788141004 | 71° F | 39% | 763.9 mmHg | 0 in | - | 8 W/m² | - |
| 1788140404 | 74° F | 36% | 763.9 mmHg | 0 in | - | 15 W/m² | - |
| 1788139805 | 76° F | 35% | 763.9 mmHg | 0 in | - | 21 W/m² | - |
| 1788139204 | 76° F | 32% | 763.9 mmHg | 0 in | - | 24 W/m² | - |
| 1788138605 | 77° F | 34% | 763.9 mmHg | 0 in | - | 27 W/m² | - |
| 1788138004 | 77° F | 32% | 763.9 mmHg | 0 in | - | 31 W/m² | - |
| 1788137404 | 80° F | 31% | 764.1 mmHg | 0 in | - | 34 W/m² | - |
| 1788136804 | 79° F | 29% | 764.1 mmHg | 0 in | - | 39 W/m² | - |
| 1788136204 | 78° F | 29% | 764.1 mmHg | 0 in | - | 46 W/m² | - |
| 1788135604 | 80° F | 30% | 764.1 mmHg | 0 in | - | 55 W/m² | - |
| 1788135004 | 81° F | 28% | 764.1 mmHg | 0 in | - | 66 W/m² | - |
| 1788134404 | 80° F | 32% | 764.1 mmHg | 0 in | - | 80 W/m² | - |
| 1788133804 | 80° F | 29% | 764.2 mmHg | 0 in | - | 98 W/m² | - |
| 1788133204 | 80° F | 33% | 764.2 mmHg | 0 in | - | 117 W/m² | - |
| 1788132605 | 80° F | 33% | 764.2 mmHg | 0 in | - | 139 W/m² | - |
| 1788132004 | 80° F | 31% | 764.2 mmHg | 0 in | - | 166 W/m² | - |
| 1788131405 | 80° F | 31% | 764.2 mmHg | 0 in | - | 191 W/m² | - |
| 1788130804 | 80° F | 35% | 764.2 mmHg | 0 in | - | 195 W/m² | - |
| 1788130204 | 79° F | 34% | 764.4 mmHg | 0 in | - | 248 W/m² | - |
| 1788129604 | 80° F | 33% | 764.4 mmHg | 0 in | - | 277 W/m² | - |
| 1788129004 | 79° F | 36% | 764.4 mmHg | 0 in | - | 310 W/m² | - |
| 1788128404 | 80° F | 35% | 764.4 mmHg | 0 in | - | 341 W/m² | - |
| 1788127804 | 79° F | 36% | 764.4 mmHg | 0 in | - | 373 W/m² | - |
| 1788127205 | 78° F | 35% | 764.4 mmHg | 0 in | - | 406 W/m² | - |
| 1788126604 | 78° F | 35% | 764.7 mmHg | 0 in | - | 442 W/m² | - |
* Rain latest hour (hover to see other rain measurements)
** Current wind speed in m/s (hover to see current wind gust speed)